[[[{"header":{"parameterUnit":"kt","parameterCategory":2,"dx":1,"dy":1,"la1":30.253999710083008,"la2":30.299108505249023,"lo1":-89.0895004272461,"lo2":-89.04439544677734,"nx":28,"ny":28,"refTime":"2022-10-20T21:00:00:Z","depth":"0","parameterNumber":2,"parameterNumberName":"U-component_of_CURRENTS"},"data":[0.0736,0.0834,0.0914,0.1169,0.1309,0.1456,0.1536,0.169,0.1862,0.2165,0.2329,0.2469,0.26,0.261,0.2113,0.1857,0.1418,0.1454,0.1315,0.1353,0.1345,0.1337,0.1199,0.1418,0.1418,0.0904,0.0901,0.0899,0.0795,0.0859,0.1025,0.1105,0.1268,0.1301,0.1462,0.151,0.1665,0.1935,0.2169,0.2507,0.2675,0.2591,0.236,0.1985,0.1612,0.1806,0.1468,0.143,0.1662,0.1543,0.1838,0.1838,0.1839,0.1839,0.1839,0.1839,0.0835,0.0862,0.0833,0.0963,0.1086,0.1216,0.1289,0.1399,0.1491,0.1675,0.1887,0.2202,0.2513,0.2635,0.2419,0.2048,0.2043,0.1796,0.1835,0.1667,0.1534,0.1729,0.2195,0.2194,0.2194,0.2193,0.2193,0,0.0759,0.0713,0.0691,0.0815,0.0887,0.0953,0.1054,0.1112,0.1047,0.1184,0.1492,0.1737,0.2136,0.2326,0.2382,0.2254,0.173,0.1915,0.1655,0.1396,0.1154,0.1136,0.1258,0.1692,0.1688,0.1686,0.1684,0.1682,0.0695,0.065,0.0591,0.065,0.0646,0.0671,0.0712,0.0618,0.067,0.0838,0.0985,0.1351,0.1597,0.1984,0.188,0.1922,0.1649,0.1838,0.1457,0.1163,0.1204,0.1001,0.0939,0.1643,0.1648,0.1652,0.1655,0,0.0678,0.0576,0.0512,0.0417,0.0436,0.044,0.0454,0.0474,0.0425,0.0582,0.0631,0.0737,0.1076,0.1114,0.1353,0.1171,0.1269,0.1324,0.1302,0.1365,0.1097,0.1081,0.13,0.1269,0.1489,0.1494,0.1498,0,0.0617,0.0577,0.0496,0.0436,0.0421,0.0268,0.0264,0.0181,0.0171,0.025,0.0145,0.0325,0.0358,0.0596,0.0521,0.076,0.0837,0.0642,0.0721,0.0702,0.0705,0.0577,0.0557,0.0629,0.0625,0.0622,0.0619,0,0.0672,0.0545,0.0444,0.0371,0.0195,0.0144,0.0074,-0.0065,-0.0114,-0.0096,-0.0004,0.001,0.0189,0.0223,0.0297,0.0143,0.0644,0.0471,0.057,0.0577,0.0707,0.0715,0.0765,0.0615,0.0614,0.0613,0.0611,0,0.0635,0.0586,0.0439,0.0345,0.029,0.0184,0.0011,-0.014,-0.0222,-0.0273,-0.028,-0.0277,-0.0225,-0.0329,-0.012,-0.0224,-0.0175,-0.0097,-0.0076,0.0031,0.0026,0.0482,0.0638,0.0396,0.0135,0.013,0.0126,0,0.0704,0.0591,0.0511,0.036,0.0268,0.0098,-0.0069,-0.023,-0.0336,-0.0364,-0.0436,-0.0466,-0.0657,-0.061,-0.0576,-0.0448,-0.0373,-0.059,-0.0142,-0.0129,0.0022,0.0127,0.016,0.0547,0.0062,0.0068,0.0073,0,0.0759,0.0645,0.0635,0.059,0.0349,0.024,0.0028,-0.0171,-0.0194,-0.0397,-0.0389,-0.0676,-0.0622,-0.0701,-0.0761,-0.0672,-0.0476,-0.0646,-0.0637,-0.0389,-0.0052,0.0028,0.008,-0.0415,-0.0409,-0.0404,0.0023,0,0.0816,0.0752,0.0694,0.0538,0.0404,0.0274,0.0092,-0.0047,-0.0145,-0.0241,-0.0376,-0.0521,-0.0624,-0.0704,-0.081,-0.0767,-0.0705,-0.0707,-0.0602,-0.0628,-0.0453,-0.0413,-0.0879,-0.0879,-0.0879,-0.0879,0,0,0.09,0.0828,0.073,0.0634,0.0532,0.0414,0.0298,0.0147,-0.0086,-0.0142,-0.0173,-0.0429,-0.0551,-0.0665,-0.0753,-0.084,-0.0708,-0.0779,-0.0689,-0.0669,-0.0649,-0.0479,-0.0441,-0.0879,-0.0879,-0.0879,-0.0879,0,0.0923,0.0854,0.0791,0.0666,0.0534,0.0414,0.0386,0.0194,0.0105,-0.0114,-0.0159,-0.0257,-0.0523,-0.0588,-0.066,-0.0831,-0.0669,-0.0881,-0.0866,-0.0695,-0.0675,-0.0656,-0.0485,-0.0451,-0.0878,-0.0878,-0.0878,0,0.0956,0.0887,0.0841,0.0673,0.0569,0.0429,0.0415,0.0288,0.0166,0.0103,-0.0103,-0.0189,-0.0329,-0.0503,-0.0576,-0.0548,-0.0597,-0.0707,-0.0712,-0.0675,-0.0491,-0.0473,-0.0457,-0.0631,-0.0629,-0.0628,0,0,0.0963,0.0893,0.0743,0.0665,0.0604,0.0462,0.0375,0.0317,0.0167,0.0101,-0.0014,-0.0134,-0.0268,-0.0337,-0.0474,-0.0634,-0.0514,-0.067,-0.0681,-0.069,-0.0659,-0.048,-0.0466,-0.0622,-0.0622,-0.0622,0,0,0.0953,0.0822,0.0814,0.0715,0.0572,0.0386,0.0309,0.0257,0.0091,0.0119,0.0022,-0.0011,-0.0174,-0.024,-0.0159,-0.0406,-0.0369,-0.039,-0.0331,-0.0347,-0.0359,-0.0278,-0.0104,0,0,0,0,0,0.0906,0.0842,0.0838,0.081,0.0598,0.0399,0.0358,0.0264,0.0297,0.0209,0.0096,0.0132,-0.0229,-0.016,-0.0195,-0.0218,-0.0547,-0.056,-0.0573,-0.0539,-0.0555,-0.0569,0,0,0,0,0,0,0.0894,0.0862,0.0838,0.0669,0.062,0.0402,0.0428,0.0396,0.0303,0.0299,0.0144,0.0127,0.0065,-0.0142,-0.0173,-0.0193,-0.0094,-0.0552,-0.0564,-0.0574,-0.0544,-0.0558,-0.0569,0,0,0,0,0,0.0884,0.0858,0.0568,0.0665,0.0622,0.0478,0.0431,0.0405,0.0316,0.0201,0.0179,0.026,0.0064,0.0034,-0.0161,-0.0177,-0.0072,-0.0084,-0.056,-0.0568,-0.0576,-0.0551,0,0,0,0,0,0,0.0877,0.0788,0.0554,0.0534,0.0717,0.0485,0.0454,0.0414,0.0222,0.0199,0.0316,0.0316,0.0061,0.0039,0.0016,-0.0169,-0.0054,-0.0066,-0.0073,-0.0566,-0.0573,-0.058,0,0,0,0,0,0,0.0802,0.0772,0.0543,0.0615,0.0601,0.0492,0.0465,0.0331,0.0223,0.0345,0.034,0.0319,0.0139,0.0042,0.0024,-0.0188,-0.004,-0.0052,-0.006,-0.0065,-0.0572,-0.0578,0,0,0,0,0,0,0.0786,0.076,0.0618,0.0608,0.0595,0.0349,0.0371,0.0178,0.0231,0.0355,0.0242,0.0247,0.0145,0.0122,0.0029,-0.0175,-0.0185,-0.0041,-0.0049,-0.0054,-0.0058,0,0,0,0,0,0,0,0.0772,0.0995,0.0692,0.0602,0.0591,0.035,0.0343,0.0336,0.0232,0.0236,0.0241,0.0245,0.0025,0.0012,-0.0,-0.0165,0,0,-0.004,-0.0045,0,0,0,0,0,0,0,0,0.1001,0.0997,0.0692,0.0688,0.0685,0.0349,0.0343,0.0337,0.0233,0.0236,0.024,0.0243,0.0021,0.0011,0.0001,0,0,0,0,0,0,0,0,0,0,0,0,0,0,0,0.0691,0.0689,0,0.0348,0.0343,0.0338,0.0233,0.0236,0.0239,0.0242,0.0019,0.001,0.0002,0,0,0,0,0,0,0,0,0,0,0,0,0,0,0,0,0,0,0,0,0,0,0,0,0,0,0,0,0,0,0,0,0,0,0,0,0,0,0,0,0,0,0,0,0,0,0,0,0,0,0,0,0,0,0,0,0,0,0,0,0,0,0,0,0,0,0,0,0]}],[{"header":{"parameterUnit":"kt","parameterCategory":2,"dx":1,"dy":1,"la1":30.253999710083008,"la2":30.299108505249023,"lo1":-89.0895004272461,"lo2":-89.04439544677734,"nx":28,"ny":28,"refTime":"2022-10-20T21:00:00:Z","depth":"0","parameterNumber":3,"parameterNumberName":"V-component_of_CURRENTS"},"data":[0.0703,0.0717,0.0747,0.089,0.0923,0.1106,0.1274,0.1599,0.1966,0.2655,0.3151,0.3565,0.3753,0.2845,0.2114,0.1898,0.1556,0.1528,0.1363,0.1483,0.1492,0.1501,0.1482,0.1404,0.1403,0.1156,0.1153,0.1151,0.0626,0.0646,0.0667,0.0747,0.0786,0.0828,0.111,0.1273,0.1635,0.215,0.2579,0.3185,0.319,0.307,0.268,0.2201,0.2023,0.1955,0.1805,0.1849,0.2141,0.2154,0.2217,0.2217,0.2217,0.2218,0.2218,0.2218,0.057,0.0556,0.0503,0.0584,0.0627,0.0805,0.093,0.1128,0.1431,0.202,0.2283,0.2868,0.3175,0.3116,0.2758,0.2331,0.2356,0.2159,0.2083,0.1981,0.2018,0.2292,0.2464,0.2462,0.246,0.2459,0.2458,0,0.0555,0.0526,0.0451,0.0481,0.0545,0.0619,0.075,0.0914,0.1174,0.1542,0.2116,0.2504,0.285,0.2986,0.2804,0.2596,0.2193,0.2288,0.1991,0.203,0.1857,0.1903,0.2188,0.2344,0.2342,0.234,0.2338,0.2337,0.0615,0.054,0.0444,0.0468,0.0448,0.0455,0.0537,0.0703,0.0901,0.1495,0.1749,0.2224,0.2645,0.2723,0.2567,0.2364,0.2134,0.2239,0.2145,0.1814,0.1743,0.1622,0.1647,0.2309,0.2313,0.2315,0.2318,0,0.0659,0.0573,0.0455,0.0376,0.0416,0.0413,0.0552,0.0691,0.0956,0.1357,0.1516,0.2062,0.2322,0.232,0.2363,0.2178,0.2043,0.2028,0.2105,0.2145,0.1817,0.1731,0.1664,0.1696,0.1964,0.1965,0.1966,0,0.0677,0.0606,0.0509,0.0424,0.045,0.0402,0.0531,0.0698,0.0957,0.1227,0.1511,0.1855,0.1962,0.2104,0.1957,0.1951,0.2013,0.1812,0.1845,0.1956,0.1964,0.1805,0.1725,0.1861,0.1861,0.1861,0.1861,0,0.0762,0.0633,0.0529,0.048,0.0433,0.0462,0.0485,0.0694,0.083,0.1199,0.1463,0.1642,0.1882,0.1822,0.1865,0.1812,0.1933,0.19,0.1817,0.1814,0.2005,0.2017,0.1817,0.1861,0.1861,0.1861,0.1861,0,0.0807,0.072,0.0561,0.0567,0.0536,0.0508,0.0658,0.0665,0.0933,0.109,0.1298,0.1496,0.165,0.1585,0.1685,0.167,0.1628,0.1638,0.1642,0.1725,0.1746,0.189,0.1914,0.1651,0.1653,0.1651,0.165,0,0.0957,0.0798,0.0773,0.0662,0.0562,0.0617,0.0627,0.0702,0.0843,0.1029,0.1154,0.1352,0.1277,0.144,0.1445,0.1604,0.1566,0.1522,0.1699,0.1702,0.1731,0.1721,0.1862,0.1887,0.1635,0.1637,0.1638,0,0.108,0.0948,0.094,0.0914,0.0836,0.0797,0.0772,0.0814,0.0936,0.0926,0.1105,0.1144,0.1294,0.1372,0.1481,0.1515,0.1535,0.1548,0.1556,0.1548,0.1671,0.1693,0.1705,0.1612,0.1615,0.1617,0.1626,0,0.1116,0.1094,0.1026,0.0991,0.0945,0.0851,0.086,0.087,0.092,0.0996,0.1109,0.1202,0.137,0.1363,0.142,0.152,0.1517,0.158,0.1647,0.162,0.1619,0.1628,0.1553,0.1555,0.1557,0.1558,0,0,0.1295,0.1244,0.127,0.1185,0.1141,0.1178,0.1084,0.1093,0.11,0.1168,0.1157,0.1341,0.14,0.1539,0.152,0.1535,0.1569,0.157,0.1614,0.162,0.1625,0.1624,0.1631,0.1561,0.1562,0.1562,0.1563,0,0.131,0.1356,0.1311,0.1267,0.1221,0.1227,0.1198,0.1171,0.1196,0.1187,0.1304,0.1382,0.1427,0.1536,0.1596,0.1552,0.1636,0.156,0.1533,0.1625,0.1628,0.1631,0.163,0.1635,0.1567,0.1567,0.1567,0,0.1403,0.1429,0.1433,0.142,0.1394,0.1316,0.1388,0.1313,0.1298,0.1424,0.141,0.149,0.1594,0.1619,0.1634,0.1665,0.17,0.1681,0.1673,0.1695,0.1796,0.1797,0.1799,0.1784,0.1784,0.1784,0,0,0.1436,0.1451,0.1442,0.143,0.1387,0.1401,0.1371,0.1388,0.14,0.141,0.1467,0.1539,0.1604,0.1634,0.1677,0.1689,0.1747,0.1703,0.1693,0.1684,0.1701,0.1798,0.1799,0.1785,0.1785,0.1785,0,0,0.1439,0.147,0.153,0.1501,0.1472,0.1458,0.1394,0.1433,0.1452,0.1469,0.1571,0.159,0.1608,0.166,0.1665,0.1715,0.1762,0.1761,0.1679,0.1667,0.1657,0.1668,0.1766,0,0,0,0,0,0.151,0.1467,0.1523,0.1522,0.1529,0.145,0.1444,0.1458,0.1507,0.1464,0.1536,0.1603,0.1689,0.1695,0.1708,0.171,0.1801,0.1799,0.1796,0.1692,0.1679,0.1668,0,0,0,0,0,0,0.151,0.1514,0.152,0.1515,0.1513,0.1455,0.1539,0.1543,0.151,0.1517,0.1588,0.1605,0.1674,0.1694,0.1705,0.1705,0.1763,0.18,0.1798,0.1796,0.1688,0.1677,0.1668,0,0,0,0,0,0.1509,0.1512,0.1536,0.1514,0.1513,0.1512,0.1543,0.1546,0.1532,0.16,0.1616,0.1537,0.1671,0.1685,0.1701,0.1699,0.1756,0.176,0.1799,0.1797,0.1795,0.1682,0,0,0,0,0,0,0.1508,0.1522,0.1535,0.1531,0.1532,0.1514,0.152,0.1548,0.1621,0.1629,0.1557,0.1563,0.1669,0.168,0.1691,0.1693,0.1751,0.1754,0.1757,0.1797,0.1796,0.1794,0,0,0,0,0,0,0.1518,0.1521,0.1533,0.1557,0.1557,0.1515,0.1521,0.1551,0.1625,0.1579,0.1581,0.1559,0.1676,0.1676,0.1685,0.1728,0.1747,0.175,0.1752,0.1754,0.1796,0.1795,0,0,0,0,0,0,0.1518,0.152,0.1559,0.1559,0.156,0.1534,0.1545,0.1576,0.1571,0.1579,0.1577,0.158,0.1673,0.1681,0.168,0.172,0.1726,0.1747,0.1749,0.1751,0.1752,0,0,0,0,0,0,0,0.1518,0.1521,0.1539,0.1561,0.1562,0.1498,0.1498,0.1499,0.1572,0.1574,0.1577,0.1579,0.1727,0.1731,0.1734,0.1712,0,0,0.1746,0.1748,0,0,0,0,0,0,0,0,0.1518,0.152,0.1539,0.1538,0.1536,0.1498,0.1498,0.1499,0.1572,0.1574,0.1576,0.1578,0.1728,0.1731,0.1734,0,0,0,0,0,0,0,0,0,0,0,0,0,0,0,0.1539,0.1538,0,0.1498,0.1498,0.1499,0.1573,0.1574,0.1576,0.1577,0.1729,0.1731,0.1734,0,0,0,0,0,0,0,0,0,0,0,0,0,0,0,0,0,0,0,0,0,0,0,0,0,0,0,0,0,0,0,0,0,0,0,0,0,0,0,0,0,0,0,0,0,0,0,0,0,0,0,0,0,0,0,0,0,0,0,0,0,0,0,0,0,0,0,0,0]}]],[[{"header":{"parameterUnit":"kt","parameterCategory":2,"dx":1,"dy":1,"la1":30.253999710083008,"la2":30.299108505249023,"lo1":-89.0895004272461,"lo2":-89.04439544677734,"nx":28,"ny":28,"refTime":"2022-10-20T21:00:00:Z","depth":"2","parameterNumber":2,"parameterNumberName":"U-component_of_CURRENTS"},"data":[-0.3895,-0.3694,-0.3643,-0.3279,-0.3168,-0.2824,-0.265,-0.2305,-0.1921,-0.1297,-0.0819,-0.0492,-0.0489,-0.0054,-0.0063,0.0042,-0.0039,0.0082,-0.0461,-0.0338,-0.0358,-0.0445,-0.0671,0,0,0,0,0,-0.4066,-0.4004,-0.3889,-0.3711,-0.3508,-0.3544,-0.3299,-0.3025,-0.2666,-0.2216,-0.1856,-0.123,-0.0847,-0.0637,-0.0291,-0.0252,-0.0171,-0.0264,-0.014,-0.0168,-0.0192,-0.0314,0.0075,0.0077,0.008,0.0082,0,0,-0.4344,-0.4265,-0.4171,-0.4042,-0.3931,-0.3762,-0.3573,-0.3399,-0.3124,-0.2618,-0.2659,-0.2127,-0.1875,-0.1043,-0.0852,-0.0681,-0.0798,-0.0676,-0.068,-0.0687,-0.0837,-0.0977,-0.0589,-0.0591,-0.0593,-0.0595,-0.0597,0,-0.451,-0.4502,-0.4407,-0.4309,-0.4178,-0.405,-0.3836,-0.3725,-0.3439,-0.324,-0.2936,-0.271,-0.2277,-0.1747,-0.1341,-0.11,-0.1005,-0.0884,-0.1151,-0.0841,-0.0972,-0.0912,-0.0956,-0.056,-0.0562,-0.0564,-0.0565,-0.0566,-0.4678,-0.4632,-0.4555,-0.4478,-0.4404,-0.4223,-0.406,-0.3847,-0.3647,-0.3333,-0.3156,-0.2834,-0.2519,-0.2056,-0.1681,-0.1227,-0.1353,-0.0941,-0.0989,-0.14,-0.1332,-0.1367,-0.1401,-0.0592,-0.0589,-0.0586,-0.0584,0,-0.473,-0.4734,-0.4645,-0.4511,-0.4463,-0.4309,-0.4095,-0.3882,-0.3641,-0.3323,-0.3169,-0.2823,-0.2497,-0.2225,-0.1802,-0.1656,-0.1381,-0.1306,-0.1243,-0.1147,-0.1377,-0.1413,-0.1043,-0.1043,-0.1044,-0.1044,-0.1045,0,-0.4807,-0.4746,-0.47,-0.4632,-0.4482,-0.4362,-0.413,-0.3926,-0.3615,-0.3377,-0.3075,-0.2857,-0.2487,-0.2242,-0.2016,-0.1749,-0.1608,-0.1643,-0.1537,-0.1406,-0.141,-0.1549,-0.157,-0.1408,-0.1412,-0.1415,-0.1418,0,-0.48,-0.4787,-0.4734,-0.4692,-0.4526,-0.4428,-0.4289,-0.4002,-0.3831,-0.34,-0.3224,-0.2823,-0.2611,-0.2303,-0.213,-0.2133,-0.1795,-0.1731,-0.1645,-0.1649,-0.1331,-0.1322,-0.1422,-0.1422,-0.1423,-0.1424,-0.1426,0,-0.4817,-0.4791,-0.4773,-0.4611,-0.4578,-0.4507,-0.4202,-0.4077,-0.3741,-0.3551,-0.3252,-0.3009,-0.2782,-0.2773,-0.2391,-0.2483,-0.226,-0.2193,-0.2168,-0.2187,-0.2122,-0.1648,-0.1486,-0.1884,-0.189,-0.1895,-0.1899,0,-0.4727,-0.4752,-0.4737,-0.4666,-0.4624,-0.4468,-0.4353,-0.4165,-0.3959,-0.3678,-0.3496,-0.3204,-0.3182,-0.2968,-0.2865,-0.2662,-0.2508,-0.2735,-0.2084,-0.2067,-0.2219,-0.2138,-0.1959,-0.1573,-0.1962,-0.1956,-0.1951,0,-0.4658,-0.4644,-0.4637,-0.4564,-0.4471,-0.4408,-0.4325,-0.4147,-0.3968,-0.3802,-0.3544,-0.3403,-0.318,-0.304,-0.2877,-0.2797,-0.2612,-0.264,-0.2623,-0.251,-0.2082,-0.2209,-0.2177,-0.2446,-0.244,-0.2435,-0.2001,0,-0.4521,-0.452,-0.4552,-0.4492,-0.4441,-0.4408,-0.4264,-0.4149,-0.3975,-0.382,-0.3566,-0.339,-0.3065,-0.3067,-0.2973,-0.2779,-0.2654,-0.2586,-0.2515,-0.2488,-0.23,-0.2261,-0.2665,-0.2661,-0.2658,-0.2656,0,0,-0.4392,-0.4424,-0.4371,-0.4386,-0.4321,-0.4155,-0.4145,-0.4046,-0.3831,-0.371,-0.3642,-0.3228,-0.3109,-0.289,-0.2882,-0.2804,-0.2609,-0.2717,-0.2514,-0.25,-0.2485,-0.2307,-0.2273,-0.2651,-0.265,-0.2649,-0.2648,0,-0.4344,-0.4313,-0.4368,-0.431,-0.4212,-0.4121,-0.4103,-0.3955,-0.3838,-0.3688,-0.349,-0.3333,-0.3056,-0.2916,-0.2803,-0.2774,-0.2549,-0.2667,-0.2716,-0.2497,-0.2487,-0.2477,-0.2301,-0.2273,-0.2641,-0.2641,-0.2642,0,-0.4225,-0.4192,-0.4203,-0.4159,-0.4079,-0.4053,-0.3915,-0.3861,-0.3783,-0.3556,-0.3384,-0.3222,-0.2997,-0.2851,-0.2761,-0.2718,-0.2474,-0.2576,-0.2586,-0.2584,-0.2352,-0.2342,-0.2332,-0.2458,-0.2459,-0.246,0,0,-0.4177,-0.4205,-0.411,-0.4136,-0.4114,-0.396,-0.3915,-0.3805,-0.3659,-0.3579,-0.3388,-0.3176,-0.3018,-0.2899,-0.2757,-0.2635,-0.2492,-0.2566,-0.2575,-0.2583,-0.2586,-0.2359,-0.2348,-0.2462,-0.2462,-0.2462,0,0,-0.4135,-0.4076,-0.3992,-0.405,-0.396,-0.3837,-0.3827,-0.371,-0.3549,-0.3491,-0.3271,-0.3211,-0.305,-0.2916,-0.2969,-0.271,-0.2657,-0.2644,-0.2825,-0.2833,-0.2841,-0.2886,-0.2826,0,0,0,0,0,-0.4015,-0.41,-0.4027,-0.4019,-0.393,-0.3887,-0.3865,-0.3708,-0.36,-0.3589,-0.3382,-0.3272,-0.288,-0.2924,-0.2883,-0.2844,-0.2492,-0.2486,-0.2481,-0.2685,-0.2695,-0.2703,0,0,0,0,0,0,-0.4011,-0.4007,-0.4024,-0.392,-0.3897,-0.3885,-0.3731,-0.369,-0.3596,-0.3567,-0.3317,-0.3267,-0.3127,-0.2934,-0.29,-0.2865,-0.2837,-0.249,-0.2485,-0.2481,-0.2688,-0.2696,-0.2704,0,0,0,0,0,-0.4008,-0.4004,-0.391,-0.3915,-0.3895,-0.3712,-0.3726,-0.369,-0.3593,-0.3389,-0.3335,-0.3469,-0.3136,-0.3089,-0.2913,-0.2884,-0.2859,-0.2847,-0.2487,-0.2483,-0.248,-0.2692,0,0,0,0,0,0,-0.4005,-0.3956,-0.3901,-0.3887,-0.3863,-0.3705,-0.368,-0.369,-0.3413,-0.3367,-0.3536,-0.3517,-0.3143,-0.3105,-0.307,-0.2898,-0.2878,-0.2865,-0.2858,-0.2484,-0.2481,-0.2479,0,0,0,0,0,0,-0.3957,-0.3947,-0.3894,-0.3838,-0.3815,-0.37,-0.3678,-0.3573,-0.3407,-0.3572,-0.355,-0.353,-0.3148,-0.3117,-0.3089,-0.2936,-0.2892,-0.288,-0.2872,-0.2867,-0.2482,-0.248,0,0,0,0,0,0,-0.3948,-0.3939,-0.384,-0.3823,-0.3803,-0.363,-0.3596,-0.3482,-0.346,-0.3583,-0.3443,-0.3435,-0.3162,-0.3132,-0.3103,-0.2964,-0.2943,-0.2891,-0.2883,-0.2878,-0.2874,0,0,0,0,0,0,0,-0.3942,-0.4054,-0.3988,-0.3811,-0.3793,-0.3757,-0.3752,-0.3748,-0.3458,-0.3451,-0.3445,-0.3438,-0.2959,-0.2946,-0.2933,-0.2987,0,0,-0.2893,-0.2887,0,0,0,0,0,0,0,0,-0.4053,-0.4054,-0.3988,-0.3985,-0.3983,-0.3756,-0.3753,-0.3749,-0.3457,-0.3451,-0.3446,-0.3441,-0.2956,-0.2945,-0.2935,0,0,0,0,0,0,0,0,0,0,0,0,0,0,0,-0.3988,-0.3985,0,-0.3756,-0.3753,-0.375,-0.3456,-0.3452,-0.3447,-0.3443,-0.2953,-0.2944,-0.2935,0,0,0,0,0,0,0,0,0,0,0,0,0,0,0,0,0,0,0,0,0,0,0,0,0,0,0,0,0,0,0,0,0,0,0,0,0,0,0,0,0,0,0,0,0,0,0,0,0,0,0,0,0,0,0,0,0,0,0,0,0,0,0,0,0,0,0,0,0]}],[{"header":{"parameterUnit":"kt","parameterCategory":2,"dx":1,"dy":1,"la1":30.253999710083008,"la2":30.299108505249023,"lo1":-89.0895004272461,"lo2":-89.04439544677734,"nx":28,"ny":28,"refTime":"2022-10-20T21:00:00:Z","depth":"2","parameterNumber":3,"parameterNumberName":"V-component_of_CURRENTS"},"data":[-0.1774,-0.1795,-0.1735,-0.16,-0.1466,-0.1281,-0.1163,-0.097,-0.0827,-0.0621,-0.0522,-0.0556,-0.053,-0.0509,-0.053,-0.0489,-0.0357,-0.0491,-0.0494,-0.0405,-0.0375,-0.0322,-0.0383,0,0,0,0,0,-0.169,-0.1642,-0.16,-0.1484,-0.1403,-0.1293,-0.1147,-0.1039,-0.0832,-0.0704,-0.0546,-0.0515,-0.0484,-0.0397,-0.0408,-0.04,-0.034,-0.0386,-0.0318,-0.0296,-0.0273,-0.0315,-0.0515,-0.0512,-0.051,-0.0507,0,0,-0.1498,-0.1525,-0.1431,-0.1375,-0.1292,-0.12,-0.1138,-0.0996,-0.0882,-0.069,-0.0616,-0.0465,-0.0452,-0.0358,-0.0258,-0.0235,-0.0236,-0.0253,-0.0238,-0.0219,-0.0269,-0.037,-0.0453,-0.0451,-0.0449,-0.0448,-0.0447,0,-0.1336,-0.1286,-0.126,-0.1188,-0.1143,-0.1093,-0.1011,-0.0987,-0.0832,-0.0746,-0.0583,-0.0476,-0.0349,-0.0251,-0.0192,-0.0135,-0.0051,-0.0098,0.0158,-0.0031,-0.0132,-0.0139,-0.0131,-0.0155,-0.0151,-0.0148,-0.0146,-0.0145,-0.1118,-0.113,-0.1021,-0.0996,-0.096,-0.0937,-0.0906,-0.0805,-0.0753,-0.0619,-0.0578,-0.0455,-0.0311,-0.0151,-0.0043,0.0073,0.0187,-0.0018,0.0034,0.0193,0.0185,0.0181,0.0177,-0.0107,-0.0112,-0.0116,-0.0119,0,-0.1013,-0.0907,-0.09,-0.0798,-0.0771,-0.0795,-0.0709,-0.0697,-0.0636,-0.0581,-0.0557,-0.0379,-0.0238,-0.009,0.0098,0.0169,0.0268,0.0281,0.008,0.0053,0.0202,0.0193,0.0234,0.023,0.0226,0.0224,0.0221,0,-0.0815,-0.0817,-0.0689,-0.07,-0.0701,-0.0612,-0.0615,-0.0577,-0.05,-0.0463,-0.0342,-0.0269,-0.0067,0.0037,0.016,0.0246,0.0324,0.032,0.0315,0.0202,0.0178,0.0403,0.0391,0.0501,0.0501,0.0501,0.0501,0,-0.0754,-0.065,-0.063,-0.0611,-0.0535,-0.052,-0.0483,-0.0421,-0.0402,-0.0327,-0.0321,-0.0136,-0.0084,0.0072,0.018,0.021,0.0324,0.0368,0.0318,0.0306,0.0199,0.0173,0.0501,0.0501,0.0501,0.0501,0.0501,0,-0.0644,-0.0606,-0.0549,-0.0522,-0.0508,-0.0467,-0.0455,-0.0397,-0.0316,-0.0296,-0.0184,-0.0123,0.001,0.0041,0.0221,0.0199,0.0262,0.0298,0.03,0.0178,0.0142,-0.0047,0.0033,0.0267,0.0266,0.0264,0.0263,0,-0.0675,-0.0598,-0.0542,-0.0499,-0.0482,-0.0449,-0.0393,-0.0345,-0.0313,-0.0272,-0.017,-0.0111,-0.0032,-0.0013,0.0096,0.0143,0.0215,0.0175,0.0245,0.0245,0.0068,0.0184,0.0051,0.0024,0.0247,0.0249,0.025,0,-0.072,-0.0625,-0.0628,-0.0633,-0.0561,-0.0537,-0.0449,-0.0399,-0.0402,-0.0292,-0.0265,-0.0097,-0.0083,-0.0024,0.0032,0.0102,0.0178,0.0111,0.0114,0.0036,0.0297,0.0173,0.0171,0.0242,0.0245,0.0248,0.0238,0,-0.0736,-0.0717,-0.0676,-0.0636,-0.0598,-0.0552,-0.0513,-0.0474,-0.0477,-0.0455,-0.0341,-0.0265,-0.0176,-0.0111,-0.01,0.0042,0.0019,0.0042,-0.0034,0.009,0.007,0.008,-0.0053,-0.0054,-0.0055,-0.0055,0,0,-0.0844,-0.0798,-0.0785,-0.0734,-0.0721,-0.0727,-0.0678,-0.0637,-0.0581,-0.0567,-0.0581,-0.0404,-0.0358,-0.0225,-0.0168,-0.0117,-0.0098,-0.0138,0.005,0.0061,0.0072,0.0058,0.0069,-0.0057,-0.0057,-0.0057,-0.0057,0,-0.0855,-0.0861,-0.0814,-0.0787,-0.0759,-0.0746,-0.0737,-0.0697,-0.0691,-0.0611,-0.0612,-0.0541,-0.0408,-0.0353,-0.0307,-0.0141,-0.0163,-0.0071,-0.0035,0.0041,0.0054,0.0065,0.0053,0.0063,-0.0059,-0.0059,-0.0059,0,-0.0926,-0.0918,-0.0902,-0.0862,-0.0845,-0.0794,-0.0847,-0.0801,-0.0768,-0.0793,-0.0724,-0.0675,-0.0598,-0.0471,-0.0415,-0.0443,-0.024,-0.0274,-0.0266,-0.0288,-0.0215,-0.0198,-0.0183,-0.0389,-0.0391,-0.0393,0,0,-0.0947,-0.0921,-0.0902,-0.0867,-0.0849,-0.085,-0.0832,-0.0843,-0.0813,-0.0807,-0.0782,-0.0724,-0.0645,-0.0605,-0.0525,-0.0402,-0.041,-0.032,-0.0304,-0.0292,-0.0307,-0.0231,-0.0213,-0.0399,-0.0399,-0.0399,0,0,-0.0953,-0.0937,-0.0969,-0.0923,-0.0896,-0.0866,-0.0837,-0.0864,-0.0831,-0.0847,-0.0848,-0.0838,-0.0733,-0.0694,-0.0781,-0.0537,-0.0591,-0.0573,-0.0593,-0.0573,-0.0557,-0.0606,-0.0823,0,0,0,0,0,-0.0979,-0.0934,-0.0964,-0.0958,-0.0919,-0.0852,-0.0844,-0.0869,-0.0923,-0.0894,-0.0883,-0.0905,-0.072,-0.0799,-0.078,-0.07,-0.048,-0.0466,-0.0452,-0.0447,-0.0426,-0.0408,0,0,0,0,0,0,-0.0977,-0.0969,-0.0964,-0.0935,-0.0927,-0.0854,-0.0924,-0.0928,-0.0927,-0.0937,-0.0906,-0.0903,-0.0893,-0.0808,-0.0791,-0.0715,-0.0829,-0.0474,-0.0462,-0.0451,-0.044,-0.0422,-0.0408,0,0,0,0,0,-0.0975,-0.0968,-0.091,-0.0935,-0.0928,-0.0943,-0.0928,-0.0932,-0.0935,-0.0905,-0.0906,-0.096,-0.0891,-0.0878,-0.0798,-0.0722,-0.0841,-0.0835,-0.0467,-0.0457,-0.0448,-0.0431,0,0,0,0,0,0,-0.0973,-0.0961,-0.0908,-0.0905,-0.0974,-0.0947,-0.0947,-0.0935,-0.0904,-0.0904,-0.0957,-0.0964,-0.0888,-0.0878,-0.0868,-0.0724,-0.085,-0.0844,-0.084,-0.0459,-0.0452,-0.0445,0,0,0,0,0,0,-0.0964,-0.0958,-0.0906,-0.0955,-0.0958,-0.0952,-0.0951,-0.0872,-0.0902,-0.0956,-0.0962,-0.096,-0.0901,-0.0878,-0.087,-0.0745,-0.0858,-0.0852,-0.0847,-0.0845,-0.0453,-0.0447,0,0,0,0,0,0,-0.0962,-0.0957,-0.0955,-0.0957,-0.0961,-0.0932,-0.088,-0.0838,-0.0955,-0.0956,-0.0966,-0.0971,-0.0899,-0.0892,-0.0872,-0.0749,-0.0746,-0.0858,-0.0853,-0.085,-0.0848,0,0,0,0,0,0,0,-0.0959,-0.0996,-0.0926,-0.096,-0.0963,-0.0883,-0.0882,-0.0881,-0.0957,-0.0961,-0.0965,-0.0969,-0.0893,-0.0886,-0.0879,-0.0753,0,0,-0.0858,-0.0855,0,0,0,0,0,0,0,0,-0.0998,-0.0996,-0.0926,-0.0926,-0.0925,-0.0883,-0.0882,-0.0882,-0.0957,-0.0961,-0.0964,-0.0967,-0.0891,-0.0886,-0.088,0,0,0,0,0,0,0,0,0,0,0,0,0,0,0,-0.0926,-0.0926,0,-0.0883,-0.0882,-0.0882,-0.0958,-0.0961,-0.0963,-0.0966,-0.089,-0.0885,-0.0881,0,0,0,0,0,0,0,0,0,0,0,0,0,0,0,0,0,0,0,0,0,0,0,0,0,0,0,0,0,0,0,0,0,0,0,0,0,0,0,0,0,0,0,0,0,0,0,0,0,0,0,0,0,0,0,0,0,0,0,0,0,0,0,0,0,0,0,0,0]}]],[[{"header":{"parameterUnit":"kt","parameterCategory":2,"dx":1,"dy":1,"la1":30.253999710083008,"la2":30.299108505249023,"lo1":-89.0895004272461,"lo2":-89.04439544677734,"nx":28,"ny":28,"refTime":"2022-10-20T21:00:00:Z","depth":"4","parameterNumber":2,"parameterNumberName":"U-component_of_CURRENTS"},"data":[-0.0485,-0.0499,-0.0483,-0.0436,-0.0392,-0.038,-0.0363,-0.0376,-0.0375,-0.0423,-0.0426,-0.0479,-0.0475,-0.0515,-0.0444,-0.0445,-0.0539,-0.0485,-0.0482,-0.0704,-0.0724,-0.0742,-0.0812,0,0,0,0,0,-0.0503,-0.0477,-0.049,-0.0462,-0.0485,-0.0456,-0.0486,-0.054,-0.058,-0.0522,-0.0569,-0.0537,-0.049,-0.0489,-0.0459,-0.0501,-0.0622,-0.0456,-0.0642,-0.0717,-0.0739,-0.08,0,0,0,0,0,0,-0.0504,-0.0493,-0.0522,-0.0504,-0.052,-0.0483,-0.0521,-0.0562,-0.0597,-0.0643,-0.0593,-0.0609,-0.0668,-0.0626,-0.0613,-0.0616,-0.0631,-0.0638,-0.0663,-0.0685,-0.0716,-0.065,-0.0371,0,0,0,0,0,-0.051,-0.0525,-0.0527,-0.0527,-0.0552,-0.0563,-0.0631,-0.0628,-0.0739,-0.0825,-0.0765,-0.0736,-0.0703,-0.0768,-0.0732,-0.0743,-0.0971,-0.0842,-0.0856,-0.0984,-0.0949,-0.0934,-0.0953,-0.0823,-0.0826,-0.0827,-0.0828,0,-0.0561,-0.0541,-0.0556,-0.0555,-0.0572,-0.062,-0.0666,-0.078,-0.0853,-0.0895,-0.0879,-0.0886,-0.0955,-0.0878,-0.098,-0.0977,-0.0958,-0.0899,-0.1036,-0.0986,-0.0962,-0.0977,-0.099,-0.0846,-0.0845,-0.0843,-0.0842,0,-0.0598,-0.0592,-0.0581,-0.0618,-0.0614,-0.063,-0.0749,-0.0813,-0.0924,-0.097,-0.0993,-0.1096,-0.1134,-0.1211,-0.1238,-0.1244,-0.1203,-0.1107,-0.1281,-0.1257,-0.1018,-0.1025,-0.0876,-0.0869,-0.0864,-0.0859,-0.0855,0,-0.0654,-0.0636,-0.0641,-0.0645,-0.0633,-0.0725,-0.0796,-0.0862,-0.0975,-0.1026,-0.1178,-0.1177,-0.1359,-0.1369,-0.1429,-0.1368,-0.1443,-0.129,-0.1249,-0.148,-0.1484,-0.1433,-0.1432,-0.146,-0.1462,-0.1463,-0.1464,0,-0.0694,-0.0697,-0.0674,-0.0695,-0.0751,-0.0784,-0.0844,-0.0979,-0.1019,-0.1135,-0.1161,-0.132,-0.1324,-0.1415,-0.1454,-0.1541,-0.1483,-0.153,-0.1311,-0.1297,-0.1441,-0.1437,-0.1466,-0.1466,-0.1466,-0.1467,-0.1467,0,-0.0748,-0.0721,-0.072,-0.0755,-0.0763,-0.0821,-0.0903,-0.0958,-0.1077,-0.1119,-0.1239,-0.1292,-0.1396,-0.1391,-0.1506,-0.1603,-0.1577,-0.1562,-0.1555,-0.1377,-0.1334,-0.1378,-0.1429,-0.143,-0.1431,-0.1432,-0.1433,0,-0.0766,-0.0737,-0.0773,-0.0809,-0.0808,-0.0881,-0.0936,-0.1015,-0.1074,-0.1107,-0.1156,-0.1226,-0.1337,-0.1392,-0.1457,-0.153,-0.1507,-0.1548,-0.1497,-0.1491,-0.1345,-0.1359,-0.1629,-0.1444,-0.1443,-0.1442,-0.1441,0,-0.0781,-0.0786,-0.0792,-0.0796,-0.0864,-0.0862,-0.094,-0.0993,-0.1031,-0.1077,-0.11,-0.1253,-0.129,-0.1355,-0.1446,-0.1471,-0.1502,-0.1574,-0.1572,-0.1483,-0.1535,-0.1388,-0.1366,-0.1627,-0.1628,-0.1628,-0.1449,0,-0.0822,-0.0825,-0.0814,-0.0831,-0.0854,-0.0859,-0.0897,-0.0921,-0.094,-0.0977,-0.1073,-0.109,-0.1191,-0.1255,-0.1335,-0.1459,-0.1491,-0.1502,-0.1459,-0.1521,-0.143,-0.1424,-0.1465,-0.1464,-0.1462,-0.1461,0,0,-0.0844,-0.0819,-0.0803,-0.0802,-0.0811,-0.0832,-0.0845,-0.0868,-0.0884,-0.0907,-0.0893,-0.106,-0.1092,-0.1246,-0.1314,-0.1327,-0.137,-0.1437,-0.1498,-0.1502,-0.1506,-0.1424,-0.142,-0.1458,-0.1458,-0.1457,-0.1457,0,-0.0838,-0.0829,-0.0806,-0.0817,-0.0808,-0.082,-0.0823,-0.0817,-0.0824,-0.087,-0.0924,-0.097,-0.1119,-0.1163,-0.1225,-0.131,-0.136,-0.1436,-0.1487,-0.1486,-0.1492,-0.1498,-0.1418,-0.1416,-0.1453,-0.1453,-0.1453,0,-0.0854,-0.0823,-0.0817,-0.0792,-0.079,-0.0809,-0.0783,-0.0781,-0.0808,-0.083,-0.0875,-0.0944,-0.1034,-0.1144,-0.1196,-0.1178,-0.1311,-0.1321,-0.1329,-0.1309,-0.1304,-0.1312,-0.132,-0.1218,-0.1217,-0.1217,0,0,-0.0845,-0.0821,-0.0805,-0.079,-0.0786,-0.0783,-0.0778,-0.0785,-0.0798,-0.0812,-0.0847,-0.0913,-0.1007,-0.1057,-0.1116,-0.1209,-0.116,-0.1295,-0.1306,-0.1315,-0.1301,-0.1298,-0.1306,-0.1214,-0.1214,-0.1214,0,0,-0.0843,-0.0805,-0.0816,-0.0789,-0.0788,-0.0769,-0.0763,-0.0768,-0.0799,-0.0814,-0.0857,-0.0874,-0.0975,-0.0994,-0.0956,-0.1154,-0.1104,-0.1113,-0.1162,-0.1176,-0.1186,-0.1156,-0.0994,0,0,0,0,0,-0.0826,-0.0806,-0.0817,-0.081,-0.0785,-0.0767,-0.0766,-0.0763,-0.0769,-0.0776,-0.0813,-0.085,-0.0989,-0.0955,-0.0974,-0.1083,-0.1186,-0.1191,-0.1196,-0.128,-0.1294,-0.1306,0,0,0,0,0,0,-0.0824,-0.0816,-0.0816,-0.0794,-0.0787,-0.0768,-0.0768,-0.0768,-0.0768,-0.077,-0.0838,-0.0852,-0.0886,-0.095,-0.0966,-0.107,-0.0989,-0.1188,-0.1193,-0.1196,-0.1285,-0.1297,-0.1307,0,0,0,0,0,-0.0821,-0.0815,-0.0775,-0.0794,-0.0789,-0.0778,-0.0769,-0.0769,-0.078,-0.0824,-0.0836,-0.0778,-0.0885,-0.0902,-0.096,-0.1063,-0.0979,-0.0984,-0.1191,-0.1194,-0.1197,-0.1291,0,0,0,0,0,0,-0.0819,-0.0828,-0.0774,-0.0772,-0.0797,-0.078,-0.0778,-0.077,-0.0837,-0.0844,-0.0766,-0.0768,-0.0884,-0.0898,-0.0911,-0.106,-0.097,-0.0976,-0.098,-0.1194,-0.1196,-0.1199,0,0,0,0,0,0,-0.083,-0.0827,-0.0773,-0.0776,-0.0775,-0.0782,-0.078,-0.0837,-0.0842,-0.078,-0.0779,-0.0767,-0.0892,-0.0894,-0.0905,-0.0993,-0.0964,-0.0969,-0.0973,-0.0975,-0.1196,-0.1198,0,0,0,0,0,0,-0.0829,-0.0826,-0.0777,-0.0777,-0.0776,-0.076,-0.0838,-0.0835,-0.0772,-0.078,-0.0773,-0.0774,-0.089,-0.0899,-0.0901,-0.0983,-0.099,-0.0964,-0.0968,-0.097,-0.0972,0,0,0,0,0,0,0,-0.0828,-0.0849,-0.0776,-0.0777,-0.0776,-0.0753,-0.0753,-0.0753,-0.0772,-0.0773,-0.0773,-0.0773,-0.0933,-0.0939,-0.0945,-0.0976,0,0,-0.0963,-0.0966,0,0,0,0,0,0,0,0,-0.085,-0.0849,-0.0776,-0.0775,-0.0774,-0.0753,-0.0753,-0.0753,-0.0772,-0.0773,-0.0773,-0.0773,-0.0934,-0.0939,-0.0944,0,0,0,0,0,0,0,0,0,0,0,0,0,0,0,-0.0776,-0.0775,0,-0.0753,-0.0753,-0.0753,-0.0772,-0.0773,-0.0773,-0.0773,-0.0935,-0.0939,-0.0944,0,0,0,0,0,0,0,0,0,0,0,0,0,0,0,0,0,0,0,0,0,0,0,0,0,0,0,0,0,0,0,0,0,0,0,0,0,0,0,0,0,0,0,0,0,0,0,0,0,0,0,0,0,0,0,0,0,0,0,0,0,0,0,0,0,0,0,0,0]}],[{"header":{"parameterUnit":"kt","parameterCategory":2,"dx":1,"dy":1,"la1":30.253999710083008,"la2":30.299108505249023,"lo1":-89.0895004272461,"lo2":-89.04439544677734,"nx":28,"ny":28,"refTime":"2022-10-20T21:00:00:Z","depth":"4","parameterNumber":3,"parameterNumberName":"V-component_of_CURRENTS"},"data":[-0.0892,-0.0922,-0.094,-0.0978,-0.1021,-0.1082,-0.1097,-0.107,-0.101,-0.0963,-0.0922,-0.0926,-0.0869,-0.084,-0.0815,-0.0817,-0.1014,-0.0819,-0.082,-0.1164,-0.1181,-0.1196,-0.1216,0,0,0,0,0,-0.092,-0.0927,-0.0966,-0.1027,-0.1103,-0.1137,-0.1143,-0.1171,-0.1134,-0.1011,-0.1019,-0.0905,-0.0852,-0.0851,-0.0817,-0.0866,-0.0994,-0.0836,-0.1132,-0.1174,-0.1193,-0.1206,0,0,0,0,0,0,-0.0959,-0.0975,-0.1048,-0.109,-0.1154,-0.1176,-0.1198,-0.1184,-0.1167,-0.1109,-0.1023,-0.0986,-0.1,-0.0986,-0.0947,-0.0955,-0.0973,-0.1079,-0.1101,-0.112,-0.1112,-0.1074,-0.0835,0,0,0,0,0,-0.1003,-0.1056,-0.1098,-0.1162,-0.1217,-0.1254,-0.1304,-0.1264,-0.133,-0.136,-0.1226,-0.1208,-0.1086,-0.1122,-0.1105,-0.1087,-0.1378,-0.1276,-0.1288,-0.1374,-0.1363,-0.1337,-0.1351,-0.1264,-0.1266,-0.1268,-0.1269,0,-0.1056,-0.109,-0.1188,-0.1218,-0.127,-0.1349,-0.1389,-0.1486,-0.1518,-0.1485,-0.1436,-0.139,-0.1423,-0.1263,-0.1331,-0.1308,-0.1291,-0.1324,-0.1416,-0.1394,-0.1361,-0.1371,-0.138,-0.1284,-0.1282,-0.1281,-0.128,0,-0.1071,-0.1146,-0.1208,-0.1316,-0.1329,-0.1382,-0.1456,-0.1518,-0.1625,-0.1621,-0.166,-0.1732,-0.166,-0.1687,-0.1636,-0.1639,-0.1554,-0.1476,-0.1638,-0.1605,-0.1405,-0.1408,-0.1308,-0.1303,-0.1298,-0.1294,-0.1291,0,-0.111,-0.1156,-0.1258,-0.1291,-0.1339,-0.1441,-0.1526,-0.1605,-0.17,-0.1715,-0.1902,-0.1849,-0.1955,-0.189,-0.1872,-0.1716,-0.1779,-0.1618,-0.1573,-0.1754,-0.1755,-0.1703,-0.1699,-0.175,-0.1751,-0.1752,-0.1753,0,-0.1078,-0.1189,-0.1259,-0.1295,-0.1388,-0.1442,-0.1507,-0.1644,-0.1675,-0.1861,-0.1871,-0.1982,-0.1951,-0.1954,-0.1872,-0.1907,-0.1775,-0.1795,-0.1616,-0.1605,-0.1706,-0.17,-0.1754,-0.1754,-0.1754,-0.1754,-0.1754,0,-0.1091,-0.1138,-0.1245,-0.1299,-0.1327,-0.1407,-0.1508,-0.1594,-0.1724,-0.1796,-0.1892,-0.1925,-0.1961,-0.1925,-0.1894,-0.1923,-0.1872,-0.1816,-0.1811,-0.1643,-0.1581,-0.1631,-0.1715,-0.1715,-0.1716,-0.1716,-0.1716,0,-0.1002,-0.1103,-0.1156,-0.1258,-0.1307,-0.1363,-0.1445,-0.1548,-0.1638,-0.1713,-0.1752,-0.1837,-0.1846,-0.1869,-0.1869,-0.1829,-0.1815,-0.184,-0.1723,-0.1719,-0.1577,-0.162,-0.1822,-0.1721,-0.172,-0.172,-0.172,0,-0.0932,-0.1029,-0.1049,-0.1074,-0.1191,-0.1232,-0.1347,-0.1452,-0.151,-0.161,-0.1673,-0.1778,-0.1786,-0.1812,-0.181,-0.1796,-0.1813,-0.1778,-0.1774,-0.1718,-0.1775,-0.1641,-0.1625,-0.182,-0.182,-0.1821,-0.1723,0,-0.0872,-0.0938,-0.0978,-0.1067,-0.1122,-0.1198,-0.1263,-0.1327,-0.1378,-0.1443,-0.1551,-0.1571,-0.1639,-0.1666,-0.1676,-0.1739,-0.1713,-0.1694,-0.1624,-0.1699,-0.1646,-0.1644,-0.1637,-0.1635,-0.1633,-0.1632,0,0,-0.0768,-0.0855,-0.0886,-0.0947,-0.0989,-0.1025,-0.11,-0.1157,-0.1254,-0.13,-0.1295,-0.1432,-0.1458,-0.1543,-0.1588,-0.1608,-0.1591,-0.1611,-0.1673,-0.1679,-0.1683,-0.1636,-0.1636,-0.1629,-0.1628,-0.1627,-0.1627,0,-0.0747,-0.0793,-0.0856,-0.0901,-0.0965,-0.0997,-0.1024,-0.1095,-0.1132,-0.1244,-0.1243,-0.13,-0.142,-0.1433,-0.146,-0.158,-0.1537,-0.1622,-0.1675,-0.1659,-0.1667,-0.1673,-0.1629,-0.163,-0.1623,-0.1623,-0.1623,0,-0.0686,-0.0722,-0.0763,-0.0841,-0.0877,-0.0943,-0.0919,-0.0992,-0.1056,-0.1045,-0.1152,-0.1188,-0.1226,-0.1327,-0.1374,-0.1339,-0.1462,-0.146,-0.147,-0.1459,-0.1438,-0.1448,-0.1457,-0.1337,-0.1336,-0.1336,0,0,-0.066,-0.0721,-0.0772,-0.0838,-0.0861,-0.0901,-0.0933,-0.0959,-0.1011,-0.1037,-0.1078,-0.1126,-0.1188,-0.1226,-0.1281,-0.1377,-0.1331,-0.1427,-0.1441,-0.1452,-0.1448,-0.143,-0.1441,-0.1333,-0.1333,-0.1332,0,0,-0.0645,-0.0711,-0.0721,-0.0798,-0.0846,-0.0889,-0.0926,-0.0942,-0.1006,-0.1016,-0.1028,-0.1041,-0.1147,-0.1152,-0.1111,-0.1265,-0.1206,-0.1217,-0.127,-0.1287,-0.13,-0.128,-0.1074,0,0,0,0,0,-0.0647,-0.0703,-0.0712,-0.0729,-0.0821,-0.0888,-0.09,-0.0918,-0.0912,-0.0951,-0.099,-0.0977,-0.1129,-0.1093,-0.1111,-0.1179,-0.1295,-0.1302,-0.1308,-0.14,-0.1418,-0.1433,0,0,0,0,0,0,-0.0653,-0.0675,-0.071,-0.0755,-0.0775,-0.0886,-0.0853,-0.086,-0.0908,-0.0908,-0.097,-0.0978,-0.0984,-0.1085,-0.11,-0.1165,-0.1069,-0.1298,-0.1303,-0.1308,-0.1406,-0.1421,-0.1433,0,0,0,0,0,-0.0659,-0.0676,-0.0822,-0.0754,-0.0772,-0.0808,-0.0852,-0.0858,-0.0904,-0.0931,-0.094,-0.0917,-0.0984,-0.1,-0.1094,-0.1158,-0.1058,-0.1064,-0.1301,-0.1306,-0.131,-0.1413,0,0,0,0,0,0,-0.0662,-0.0684,-0.0825,-0.0831,-0.0736,-0.0803,-0.0815,-0.0855,-0.0926,-0.0934,-0.0875,-0.0874,-0.0985,-0.0997,-0.1009,-0.1156,-0.1049,-0.1055,-0.1059,-0.1305,-0.1308,-0.1311,0,0,0,0,0,0,-0.0674,-0.0689,-0.0828,-0.0804,-0.0807,-0.0798,-0.0809,-0.0876,-0.0927,-0.0867,-0.0867,-0.0874,-0.097,-0.0995,-0.1005,-0.1107,-0.1042,-0.1048,-0.1052,-0.1054,-0.1308,-0.131,0,0,0,0,0,0,-0.068,-0.0693,-0.0803,-0.0805,-0.0808,-0.0872,-0.0857,-0.0954,-0.0895,-0.0865,-0.0891,-0.0889,-0.0968,-0.0978,-0.1002,-0.11,-0.1105,-0.1042,-0.1046,-0.1049,-0.1051,0,0,0,0,0,0,0,-0.0685,-0.0602,-0.079,-0.0806,-0.0809,-0.0879,-0.0881,-0.0883,-0.0894,-0.0893,-0.0891,-0.089,-0.101,-0.1016,-0.1022,-0.1094,0,0,-0.1042,-0.1045,0,0,0,0,0,0,0,0,-0.0596,-0.06,-0.079,-0.0791,-0.0792,-0.088,-0.0881,-0.0883,-0.0894,-0.0893,-0.0891,-0.089,-0.1011,-0.1016,-0.1021,0,0,0,0,0,0,0,0,0,0,0,0,0,0,0,-0.079,-0.0791,0,-0.088,-0.0881,-0.0882,-0.0894,-0.0893,-0.0892,-0.0891,-0.1013,-0.1017,-0.1021,0,0,0,0,0,0,0,0,0,0,0,0,0,0,0,0,0,0,0,0,0,0,0,0,0,0,0,0,0,0,0,0,0,0,0,0,0,0,0,0,0,0,0,0,0,0,0,0,0,0,0,0,0,0,0,0,0,0,0,0,0,0,0,0,0,0,0,0,0]}]]]